sat.trackr.live / text

‹ back to catalog

STARLINK-32588

NORAD 61866 · 2024-202X

PAYLOAD ACTIVE UNKNOWN

§ Identity

Operator
Country
US
Launch date
2024-11-07
Launch site
AFETR
Launch vehicle
Mass (kg)
RCS (m²)

Purposes: comms

External: N2YO · Heavens-Above · Gunter

§ Orbital elements

Epoch: 2026-05-24T19:02:50.020800Z

Period
94.27 min
Inclination
43.0027°
Eccentricity
0.0001523
Mean motion
15.27578369 rev/d
Perigee alt
482.0 km
Apogee alt
484.1 km
Semi-major
6,861.2 km
B*
3.9142e-5
RAAN
168.4635°
Arg perigee
268.8960°
Mean anomaly
91.1717°
Rev number
8,697

§ Raw data

STARLINK-325881 61866U 24202X   26144.79363450  .00000815  00000+0  39142-4 0  99972 61866  43.0027 168.4635 0001523 268.8960  91.1717 15.27578369 86977

JSON: /api/v1/satellites/61866 · /tle

For live sub-satellite position, see the globe view (requires WebGL).

§ Visibility from observer

Set your observer location to see the next 7 days of passes ≥ 10°. The values pass through the URL so the page stays shareable.

No JS? Fill the form by hand. The geolocation button needs JavaScript.